Tracking 31027 objects as of 19-Jul-2025
HD Live streaming from Space Station
objects crossing your sky now

COSMOS 826

Track COSMOS 826 now!
10-day predictions
COSMOS 826 is classified as:


NORAD ID: 8890
Int'l Code: 1976-054B
Perigee: 1,488.3 km
Apogee: 1,551.5 km
Inclination: 74.0 °
Period: 116.3 minutes
Semi major axis: 7890 km
RCS: 0.6963 m2 (medium)
Launch date: June 15, 1976
Source: Commonwealth of Independent States (former USSR) (CIS)
Launch site: PLESETSK MISSILE AND SPACE COMPLEX (PKMTR)
Your satellite tracking list
ONEWEB-0142
Track 1 satellite(s)




NASA's NSSDC Master Catalog

Two Line Element Set (TLE):
1  8890U 76054B   25199.66029718  .00000004  00000-0  14615-3 0  9996
2  8890  74.0001 154.1824 0039992 206.1972 328.2811 12.38548430219772
Source of the keplerian elements: AFSPC